This is the latest recevied weather packets stored in our database for station/object KC1BRV. If no packets are shown the sender has not sent any weather packets the latest 10 day(s).
| Time | Temp. | Humidity | Pressure | Rain* | Wind** | Luminosity | Snow |
|---|---|---|---|---|---|---|---|
| 1777577038 | 12.22° C | 85% | 1006.5 hPa | 0 mm | - | 101 W/m² | - |
| 1777576735 | 12.22° C | 85% | 1006.7 hPa | 0 mm | - | 105 W/m² | - |
| 1777576434 | 12.22° C | 86% | 1006.9 hPa | 0 mm | - | 95 W/m² | - |
| 1777576131 | 12.22° C | 85% | 1006.8 hPa | 0 mm | - | 76 W/m² | - |
| 1777575826 | 12.22° C | 84% | 1006.8 hPa | 0 mm | - | 76 W/m² | - |
| 1777575524 | 12.22° C | 85% | 1006.8 hPa | 0 mm | - | 67 W/m² | - |
| 1777575219 | 12.22° C | 85% | 1006.9 hPa | 0 mm | - | 83 W/m² | - |
| 1777574915 | 12.22° C | 84% | 1007.2 hPa | 0 mm | - | 73 W/m² | - |
| 1777574612 | 12.22° C | 83% | 1006.9 hPa | 0 mm | - | 84 W/m² | - |
| 1777574308 | 12.78° C | 83% | 1006.9 hPa | 0 mm | - | 95 W/m² | - |
| 1777574004 | 12.22° C | 85% | 1006.9 hPa | 0 mm | - | 128 W/m² | - |
| 1777573698 | 12.22° C | 84% | 1006.8 hPa | 0 mm | - | 161 W/m² | - |
| 1777573396 | 12.78° C | 84% | 1006.8 hPa | 0 mm | - | 172 W/m² | - |
| 1777573091 | 12.78° C | 85% | 1006.8 hPa | 0 mm | - | 203 W/m² | - |
| 1777572789 | 12.78° C | 86% | 1006.7 hPa | 0 mm | - | 262 W/m² | - |
| 1777572489 | 12.22° C | 88% | 1006.9 hPa | 0 mm | - | 325 W/m² | - |
| 1777572184 | 11.67° C | 88% | 1006.9 hPa | 0 mm | - | 216 W/m² | - |
| 1777571879 | 11.67° C | 89% | 1007 hPa | 0 mm | - | 157 W/m² | - |
| 1777571575 | 11.67° C | 89% | 1007.1 hPa | 0 mm | - | 110 W/m² | - |
| 1777571272 | 11.67° C | 87% | 1007 hPa | 0 mm | - | 156 W/m² | - |
| 1777570968 | 12.22° C | 88% | 1007.1 hPa | 0 mm | - | 172 W/m² | - |
| 1777570664 | 12.22° C | 89% | 1007.2 hPa | 0 mm | - | 130 W/m² | - |
| 1777570362 | 12.22° C | 89% | 1007.2 hPa | 0 mm | - | 219 W/m² | - |
| 1777570057 | 11.67° C | 90% | 1007.2 hPa | 0 mm | - | 198 W/m² | - |
| 1777569753 | 11.67° C | 91% | 1007.2 hPa | 0 mm | - | 131 W/m² | - |
* Rain latest hour (hover to see other rain measurements)
** Current wind speed in m/s (hover to see current wind gust speed)